Location: Borup
(55.1917°N, 11.7896°E)
Time: 09:41:34
(UTC+00:00)

Daily predictions for brighter satellites

Satellite Brightness Start Highest point End
(mag) Time Altitude Azimuth Time Altitude Azimuth Time Altitude Azimuth
USA 238 DEB 4.0 20:23:06 10° NW 20:30:14 78° SW 20:37:38 10° SE
USA 238 4.0 20:23:12 10° NW 20:30:20 79° SW 20:37:45 10° SE
STARLINK-1269 3.9 20:30:09 10° SW 20:34:09 47° SSE 20:38:08 10° E
Cosmos 2278 Rocket 2.9 20:30:18 10° SW 20:35:56 61° NW 20:41:36 10° NNE
TSX-5 4.2 20:30:49 10° SSW 20:36:00 61° ESE 20:40:02 10° NE
Resurs 01 Rocket 3.6 20:32:28 10° SSW 20:36:14 27° W 20:40:03 10° NW
STARLINK-1235 3.2 20:33:15 10° W 20:36:24 50° SSW 20:39:33 10° ESE
STARLINK-1210 3.6 20:32:31 10° W 20:36:37 66° S 20:40:45 10° E
Nadezhda 4 Rocket 4.0 20:31:25 10° S 20:37:30 69° E 20:43:35 10° NNE
Cosmos 1455 Rocket 3.7 20:33:35 10° N 20:37:45 43° ENE 20:41:53 10° SE
STARLINK-1200 3.8 20:35:06 10° SW 20:39:05 48° SSE 20:43:06 10° E
STARLINK-1219 3.6 20:37:28 10° W 20:41:35 66° S 20:45:42 10° E
STARLINK-1192 3.8 20:40:03 10° WSW 20:44:04 50° SSE 20:48:05 10° E
ATLAS CENTAUR R/B 1.4 20:44:05 10° WNW 20:45:56 42° N 20:47:47 10° ENE
STARLINK-1211 3.6 20:42:27 10° W 20:46:34 66° S 20:50:42 10° E
Cosmos 371 Rocket 3.9 20:42:57 10° SW 20:47:47 62° WNW 20:52:39 10° NNE
STARLINK-1244 3.8 20:45:00 10° WSW 20:49:01 51° SSE 20:53:03 10° E
SL-4 R/B 4.0 20:46:43 10° SSE 20:49:12 14° SE 20:51:44 10° ESE
Terra 1.9 20:44:53 10° SSE 20:49:40 82° ENE 20:54:27 10° NNW
Cosmos 1110 Rocket 4.0 20:44:45 10° SSW 20:49:52 65° ESE 20:55:01 10° NNE
STARLINK-1245 3.6 20:47:25 10° W 20:51:32 66° S 20:55:39 10° E
SPOT 1/Viking Rocket 4.2 20:46:53 10° S 20:51:55 53° W 20:56:59 10° NNW
Cosmos 1842 4.1 20:49:11 10° SSE 20:52:43 34° E 20:56:15 10° NNE
CARTOSAT-1 3.9 20:48:40 10° S 20:52:57 66° WSW 20:57:17 10° NNW
ERBS 2.4 20:49:58 10° WSW 20:53:18 79° NNW 20:56:39 10° ENE
NOSS 8 (H) 4.3 20:50:53 10° SSW 20:53:51 48° SE 20:56:55 10° ENE
STARLINK-1138 3.7 20:49:57 10° WSW 20:53:59 53° SSE 20:58:02 10° E
STARLINK-1234 3.4 20:50:59 10° W 20:54:09 45° SSW 20:57:18 10° ESE
STARLINK-1233 3.6 20:52:22 10° W 20:56:30 66° S 21:00:36 10° E
STARLINK-1143 3.7 20:54:53 10° WSW 20:58:56 54° SSE 21:02:59 10° E
STARLINK-1209 3.5 20:56:58 10° W 21:00:06 42° SSW 21:03:14 10° SE
STARLINK-1204 3.6 20:57:21 10° W 21:01:27 65° S 21:05:35 10° ESE
STARLINK-1241 3.7 20:59:52 10° WSW 21:03:56 56° SSE 21:08:00 10° E
Cosmos 1733 3.3 21:01:47 10° NNW 21:05:37 77° W 21:09:24 10° S
STARLINK-1238 3.6 21:02:20 10° W 21:06:27 65° S 21:10:34 10° ESE
Cosmos 1331 Rocket 4.0 21:01:30 10° SSW 21:06:39 78° ESE 21:11:53 10° NNE
Aureole 2 Rocket 2.7 21:04:19 10° SW 21:07:20 58° WNW 21:10:13 10° NNE
STARLINK-1239 3.7 21:04:49 10° WSW 21:08:53 57° SSE 21:12:58 10° E
Cosmos 1354 Rocket 4.4 21:05:41 10° NNW 21:10:56 58° ENE 21:16:11 10° SE
STARLINK-1201 3.6 21:07:18 10° W 21:11:25 64° S 21:15:32 10° ESE
Cosmos 1437 Rocket 4.3 21:08:45 10° SW 21:12:17 36° WNW 21:15:53 10° N
Cosmos 1486 Rocket 4.1 21:07:50 10° NNW 21:13:11 84° WSW 21:18:13 11° SSE
COSMOS 2455 4.4 21:09:48 10° SE 21:13:27 17° ESE 21:17:06 10° ENE
Cosmos 1833 4.3 21:07:59 10° NNW 21:13:41 78° NE 21:19:13 11° SE
STARLINK-1240 3.6 21:09:45 10° WSW 21:13:50 59° SSE 21:17:56 10° E
Cosmos 1378 3.3 21:10:55 10° SSW 21:14:38 75° WNW 21:18:22 10° N
Cosmos 1544 Rocket 3.6 21:10:17 10° N 21:14:38 68° ENE 21:18:39 12° SSE
USA 215 3.3 21:09:09 10° ESE 21:15:44 89° S 21:22:20 10° WNW
Cosmos 2297 Rocket 4.2 21:11:14 10° NNW 21:15:51 25° NNE 21:20:26 10° E
MTI 3.9 21:12:54 10° NNE 21:16:00 53° E 21:18:58 11° S
STARLINK-1206 3.6 21:12:17 10° W 21:16:24 64° S 21:20:31 10° ESE
Cosmos 1302 Rocket 4.2 21:11:38 10° S 21:16:48 55° ESE 21:21:59 10° NNE
Cosmos 1271 Rocket 3.9 21:14:22 12° SSE 21:17:25 29° E 21:20:52 10° NNE
Cosmos 1242 Rocket 3.3 21:15:26 12° SSE 21:18:33 38° E 21:21:59 10° NNE
STARLINK-1203 3.7 21:14:33 10° WSW 21:18:42 60° S 21:22:51 10° E
STARLINK-1216 3.6 21:14:42 10° WSW 21:18:48 60° S 21:22:53 10° E
Spot 4 4.5 21:14:22 10° SE 21:18:58 48° ENE 21:23:39 10° N
Cosmos 304 Rocket 4.3 21:14:24 10° SW 21:19:09 64° WNW 21:23:57 10° NNE
STARLINK-1205 3.6 21:17:15 10° W 21:21:22 63° S 21:25:28 10° ESE
CENTAUR R/B 3.3 21:14:56 10° NW 21:22:42 72° SW 21:31:08 11° SE
Cosmos 1092 Rocket 4.0 21:16:53 10° S 21:23:02 89° ESE 21:29:15 10° NNE
NOSS 2-2 (D) 3.2 21:20:08 10° SW 21:23:43 62° SE 21:27:59 10° NE
STARLINK-1237 3.6 21:19:40 10° WSW 21:23:46 61° S 21:27:52 10° E
Lacrosse 4 Rocket 4.2 21:21:56 10° NNW 21:25:00 18° NNE 21:28:01 10° ENE
ATLAS 3B R/B 2.8 21:19:25 10° NW 21:26:12 81° NE 21:33:10 10° SE
STARLINK-1218 3.6 21:22:14 10° W 21:26:21 62° S 21:30:27 10° ESE
SL-27 R/B 3.2 21:22:54 10° NW 21:26:23 47° WSW 21:29:28 12° S
Cosmos 1707 3.8 21:24:35 13° SSE 21:27:31 30° E 21:30:58 10° NNE
NOSS 3-2 (C) 4.2 21:20:43 10° NW 21:27:55 62° SW 21:35:37 12° SSE
Cosmos 1766 4.5 21:24:48 10° NNW 21:28:30 38° W 21:32:12 10° SSW
STARLINK-1202 3.6 21:24:38 10° WSW 21:28:44 62° S 21:32:51 10° E
Cosmos 1726 3.1 21:26:18 10° N 21:29:46 36° ENE 21:32:50 12° SE
STARLINK-1254 3.6 21:27:13 10° W 21:31:19 61° S 21:35:24 10° ESE
Cosmos 1867 3.6 21:27:33 10° NW 21:33:03 78° SW 21:38:06 12° SE
COSMOS 2487 3.1 21:30:41 10° NNW 21:34:05 47° ENE 21:37:03 13° SE
ALOS 2 3.8 21:30:29 10° SE 21:34:27 34° ENE 21:38:26 10° N
NOSS 5 (C) 4.4 21:32:41 10° NW 21:35:41 71° NE 21:39:11 10° ESE
STARLINK-1231 3.7 21:32:10 10° W 21:36:15 60° S 21:40:21 10° ESE
STARLINK-1246 3.6 21:34:35 10° WSW 21:38:41 64° S 21:42:48 10° E
Cosmos 1943 Rocket 2.1 21:34:28 10° SSW 21:40:01 77° ESE 21:45:40 10° NE
Cosmos 2297 4.3 21:34:39 10° SW 21:40:18 63° NW 21:46:03 10° NNE
NOSS 2-2 (E) 3.4 21:37:18 10° SW 21:41:01 86° NW 21:45:36 10° NE
SeaSat 1 3.4 21:36:45 10° NE 21:41:04 29° ESE 21:44:34 14° SSE
STARLINK-1232 3.7 21:37:10 10° W 21:41:15 58° S 21:45:20 10° ESE
NOSS 3-4 (A) 4.2 21:36:32 11° S 21:41:37 32° ESE 21:47:08 10° ENE
NOSS 3-4 (C) 4.2 21:36:41 11° S 21:41:43 32° ESE 21:47:14 10° ENE
EO 1 Del DPAF 3.9 21:38:09 10° NNE 21:41:44 38° E 21:44:29 15° SSE
STARLINK-1224 3.6 21:39:32 10° WSW 21:43:39 64° S 21:47:46 10° E
STARLINK-1208 3.7 21:42:07 10° W 21:46:12 57° SSW 21:50:16 10° ESE
Cosmos 1461 3.9 21:44:11 10° WSW 21:48:23 54° NW 21:52:49 10° NE
STARLINK-1225 3.6 21:44:32 10° WSW 21:48:38 65° S 21:52:45 10° E
STARLINK-1212 3.9 21:46:22 10° W 21:49:08 29° SSW 21:50:47 18° SSE
Meteor 2-10 4.0 21:44:24 10° NNW 21:49:29 77° ENE 21:53:43 15° SSE
STARLINK-1105 3.9 21:46:51 10° W 21:49:36 29° SSW 21:51:13 18° SSE
Cosmos 1975 Rocket 3.5 21:45:19 10° SSW 21:49:43 63° WNW 21:54:06 10° N
STARLINK-1247 3.9 21:47:42 10° W 21:50:29 29° SSW 21:52:06 18° SSE
STARLINK-1227 3.9 21:48:12 10° W 21:50:57 29° SSW 21:52:32 18° SSE
STARLINK-1271 3.7 21:47:07 10° W 21:51:11 56° SSW 21:55:15 10° ESE
STARLINK-1226 3.9 21:49:04 10° W 21:51:49 28° SSW 21:53:23 18° SSE
BREEZE-M DEB (TANK) 3.7 21:41:06 10° WSW 21:52:10 44° S 21:55:39 10° ESE
BREEZE-M DEB (TANK) 3.5 21:49:09 10° WSW 21:52:40 36° S 21:56:16 10° ESE
STARLINK-1215 3.9 21:49:57 10° W 21:52:42 28° SSW 21:54:16 18° SSE
S3M 4.0 21:46:33 10° N 21:52:45 83° ENE 21:58:10 14° SSE
Cosmos 2227 Rocket 3.8 21:48:06 10° NNW 21:53:09 31° NE 21:58:10 10° E
Cosmos 292 Rocket 3.8 21:48:30 10° SSW 21:53:18 67° ESE 21:58:10 10° NNE
STARLINK-1230 3.6 21:49:29 10° WSW 21:53:36 65° S 21:57:43 10° E
STARLINK-1217 3.9 21:51:47 10° W 21:54:31 28° SSW 21:56:00 19° SSE
STARLINK-1229 4.0 21:52:42 10° W 21:55:25 27° SSW 21:56:54 19° SSE
STARLINK-1154 3.7 21:52:06 10° W 21:56:09 54° SSW 22:00:12 10° ESE
Cosmos 2369 Rocket 2.2 21:50:34 10° SSW 21:56:13 75° ESE 22:01:52 10° NE
STARLINK-1270 4.0 21:53:36 10° W 21:56:19 27° SSW 21:57:45 19° SSE
Aureole 3 Rocket 4.4 21:50:33 10° NNW 21:56:20 70° W 22:03:54 12° S
STARLINK-1189 4.0 21:55:24 10° W 21:58:06 27° SSW 21:59:28 19° SSE
STARLINK-1243 3.6 21:54:28 10° W 21:58:35 66° S 22:02:42 10° E
STARLINK-1188 4.0 21:56:18 10° W 21:59:01 26° SSW 22:00:22 19° SSE
Cosmos 1340 Rocket 2.9 21:55:19 10° N 21:59:23 71° ENE 22:02:31 17° SSE
STARLINK-1187 4.1 21:57:27 10° W 22:00:03 24° SSW 22:01:14 19° S
STARLINK-1197 3.8 21:57:03 10° W 22:01:06 53° SSW 22:05:08 10° ESE
Aureole 3 3.4 21:58:02 10° N 22:01:20 45° ENE 22:03:25 17° SE
STARLINK-1191 4.0 21:58:46 10° W 22:01:25 26° SSW 22:02:39 20° S
ATLAS CENTAUR R/B 2.6 21:59:35 16° SSE 22:01:56 25° ESE 22:05:21 10° ENE
STARLINK-1221 4.1 21:59:43 10° W 22:02:22 25° SSW 22:03:35 20° S
Thor Agena Rocket 3.7 21:57:12 10° NNE 22:02:31 68° ESE 22:07:12 13° S
STARLINK-1222 4.1 22:00:35 10° W 22:03:13 25° SSW 22:04:23 20° S
STARLINK-1236 3.6 21:59:25 10° W 22:03:33 66° S 22:07:40 10° E
STARLINK-1214 4.1 22:01:28 10° W 22:04:06 25° SSW 22:05:16 20° S
Cosmos 1908 4.0 22:00:49 10° N 22:04:27 41° ENE 22:07:21 15° SE
NOSS 2-2 (C) 3.6 22:01:58 10° WSW 22:05:40 71° NW 22:10:10 10° NE
STARLINK-1198 3.8 22:02:01 10° W 22:06:03 51° SSW 22:10:04 10° ESE
Cosmos 1553 Rocket 4.3 21:59:57 10° NNW 22:06:13 65° W 22:11:43 13° S
Cosmos 1025 Rocket 3.0 22:02:58 15° S 22:06:30 76° E 22:10:50 10° NNE
EXPRESS MD2 4.5 22:02:27 10° WSW 22:06:38 51° SSE 22:15:12 10° E
Cosmos 2026 Rocket 4.4 22:01:22 10° SSW 22:07:37 65° WNW 22:13:59 10° N
Cosmos 1953 2.3 22:03:42 10° NNW 22:07:43 87° W 22:10:41 17° S
BREEZE M DEB (TANK) 2.8 22:06:08 10° WSW 22:08:25 23° S 22:08:33 23° S
Cosmos 1470 3.7 22:05:04 10° NNW 22:08:44 41° W 22:11:51 13° SSW
ATLAS 2AS CENTAUR R/B 3.2 22:02:06 10° SSW 22:09:49 54° SE 22:17:26 10° NE
Cosmos 1656 Rocket 3.9 22:04:50 12° S 22:09:54 54° ESE 22:15:18 10° NE
STARLINK-1199 3.8 22:07:01 10° W 22:11:02 50° SSW 22:15:02 10° ESE
STARLINK-1235 4.5 22:09:45 10° W 22:12:17 21° SSW 22:13:12 19° S
STARLINK-1269 3.6 22:09:22 10° W 22:13:30 66° S 22:17:37 10° E
Cosmos 968 Rocket 4.4 22:08:45 10° NW 22:13:31 39° WSW 22:17:31 14° S
APEX 4.1 22:08:10 10° SSW 22:14:25 75° ESE 22:19:27 10° NE
Cosmos 2292 Rocket 3.5 22:13:23 18° SSE 22:15:37 41° E 22:18:35 10° NNE
STARLINK-1210 3.9 22:11:59 10° W 22:15:59 48° SSW 22:19:58 10° SE
STARLINK-1200 3.5 22:14:20 10° W 22:18:27 65° S 22:22:34 10° E
Cosmos 1777 Rocket 4.1 22:13:31 10° NNW 22:18:46 75° ENE 22:23:18 14° SE
Cosmos 1655 Rocket 4.0 22:15:01 14° S 22:20:33 83° E 22:26:52 10° NNE
STARLINK-1219 3.9 22:16:57 10° W 22:20:56 46° SSW 22:24:52 10° SE
SL-4 R/B 0.3 22:20:18 30° SSE 22:21:11 85° WSW 22:23:23 10° NNW
Cosmos 1758 4.5 22:18:27 10° NNW 22:22:12 36° W 22:25:25 13° SSW
STARLINK-1192 3.6 22:19:19 10° W 22:23:26 65° S 22:27:33 10° ESE
ATLAS 5 CENTAUR R/B 2.1 22:21:46 16° SSW 22:23:37 27° SE 22:25:35 10° E
Cosmos 2228 3.2 22:21:13 10° N 22:25:27 62° ENE 22:28:36 17° SSE
STARLINK-1211 3.9 22:21:57 10° W 22:25:55 45° SSW 22:29:40 11° SE
Meteor 2-15 4.5 22:19:55 10° NNW 22:26:07 89° WSW 22:31:06 16° S
Cosmos 1726 Rocket 4.0 22:21:56 10° N 22:26:12 53° ENE 22:29:31 16° SSE
STARLINK-52 4.4 22:26:28 20° SSE 22:26:28 20° SSE 22:28:49 10° E
SL-4 R/B 2.9 22:23:35 10° SW 22:28:00 37° SSE 22:32:25 10° E
Terra 3.9 22:24:47 10° SW 22:28:01 18° W 22:31:18 10° NW
STARLINK-1244 3.6 22:24:17 10° W 22:28:24 65° S 22:32:30 10° ESE
ERBS 2.7 22:26:28 10° WNW 22:29:47 63° N 22:33:06 10° E
Cosmos 1300 4.2 22:27:01 10° N 22:30:25 29° ENE 22:33:33 11° SE
STARLINK-1245 4.0 22:26:55 10° W 22:30:51 43° SSW 22:34:26 12° SE
STARLINK-1138 3.6 22:29:15 10° W 22:33:22 64° S 22:37:28 10° ESE
In-Cosmos 22 4.1 22:30:05 16° S 22:34:18 74° E 22:39:36 10° NNE
STARLINK-1233 4.0 22:31:52 10° W 22:35:48 41° SSW 22:39:12 13° SE
STARLINK-1143 3.6 22:34:12 10° W 22:38:19 63° S 22:42:25 10° ESE
Cosmos 2266 Rocket 3.9 22:33:43 15° S 22:38:49 83° E 22:44:53 10° NNE
STARLINK-1204 4.1 22:36:52 10° W 22:40:45 40° SSW 22:43:59 14° SE
SJ 16-02 2.9 22:37:56 10° NNW 22:41:56 31° NE 22:45:55 10° ESE
STARLINK-1241 3.6 22:39:13 10° W 22:43:19 62° S 22:47:25 10° ESE
STARLINK-1238 4.1 22:41:52 10° W 22:45:44 38° SSW 22:48:47 15° SE
Meteor 2-15 Rocket 4.5 22:39:51 10° NNW 22:46:02 81° W 22:50:55 17° S
Cosmos 2263 4.4 22:40:33 10° SW 22:46:10 73° NW 22:51:49 10° NNE
Helios 1B rocket 4.3 22:44:23 10° NE 22:47:30 20° E 22:50:09 12° SE
STARLINK-1239 3.6 22:44:11 10° W 22:48:16 61° S 22:52:22 10° ESE
Cosmos 1536 Rocket 4.2 22:45:44 12° SSW 22:49:34 51° WNW 22:53:52 10° N
STARLINK-1201 4.2 22:46:51 10° W 22:50:41 36° SSW 22:53:33 16° SE
Cosmos 1674 2.7 22:48:20 20° S 22:50:46 69° E 22:54:34 10° NNE
STARLINK-1240 3.6 22:49:08 10° W 22:53:14 60° S 22:57:20 10° ESE
Cosmos 1271 Rocket 4.1 22:49:45 10° SW 22:53:21 35° WNW 22:57:01 10° N
STARLINK-1206 4.3 22:51:51 10° W 22:55:39 35° SSW 22:58:21 17° SSE
STARLINK-60 3.3 22:53:23 10° SW 22:56:24 41° SSE 22:59:27 10° E
Cosmos 2219 3.4 22:50:55 10° NNW 22:56:38 75° NE 23:02:17 10° SE
STARLINK-1216 3.6 22:54:06 10° W 22:58:11 59° S 23:02:17 10° ESE
STARLINK-1203 3.6 22:54:11 10° W 22:58:19 59° SSW 23:02:28 10° ESE
COSMOS 2455 2.9 22:52:50 12° SSW 22:58:21 68° SE 23:04:22 10° NE
USA 215 3.5 22:52:56 10° SE 22:59:10 48° SW 23:05:30 10° WNW
STARLINK-1205 4.3 22:56:50 10° W 23:00:34 33° SSW 23:03:07 17° SSE
Cosmos 2297 Rocket 2.5 22:55:14 10° NNW 23:00:55 69° NE 23:06:33 10° SE
GEOS 3 Rocket 4.4 22:57:44 10° ESE 23:02:51 55° NNE 23:08:05 10° NW
STARLINK-1237 3.6 22:59:05 10° W 23:03:10 58° SSW 23:07:15 10° ESE
Cosmos 1707 4.2 22:59:50 10° SW 23:03:22 32° WNW 23:06:55 10° N
Helios 1A 3.1 23:01:35 20° S 23:04:28 68° WSW 23:08:40 10° NNW
Lacrosse 4 Rocket 2.8 23:00:39 10° NNW 23:04:49 40° NE 23:08:52 10° ESE
Cosmos 1726 3.7 23:01:45 10° NNW 23:04:51 25° W 23:07:20 13° SW
STARLINK-1218 4.4 23:01:51 10° W 23:05:32 32° SSW 23:07:55 18° SSE
STARLINK-1202 3.6 23:04:04 10° W 23:08:08 56° SSW 23:12:12 10° ESE
Timation 2 Rocket 4.2 23:01:57 10° NW 23:08:10 58° WSW 23:12:54 17° S
Cosmos 2058 Rocket 3.1 23:04:15 10° NNW 23:08:43 87° ENE 23:11:58 18° SSE
Cosmos 1455 4.4 23:05:59 10° NNE 23:08:46 19° ENE 23:11:33 10° ESE
COSMOS 2487 4.3 23:06:20 10° NW 23:08:51 19° W 23:10:32 14° SW
Cosmos 1174 3.5 23:06:37 17° SW 23:09:09 76° SE 23:13:14 10° NE
STARLINK-1254 4.5 23:06:50 10° W 23:10:29 30° SSW 23:12:41 19° SSE
ALOS 2 3.5 23:07:47 17° SSW 23:10:46 38° W 23:14:54 10° NNW
Cosmos 1898 Rocket 4.3 23:06:07 10° NNW 23:11:21 51° NE 23:16:32 10° SE
CENTAUR R/B 4.4 23:06:17 10° WNW 23:12:37 26° WSW 23:18:17 13° SSW
ATLAS 3B R/B 3.5 23:10:25 10° WNW 23:16:28 36° WSW 23:21:09 16° S
Starlink 7 placeholder 3.8 23:17:57 17° ESE 23:17:57 17° ESE 23:18:35 10° E
STARLINK-1246 3.7 23:14:02 10° W 23:18:05 53° SSW 23:22:08 10° ESE
Meteor 2-5 Rocket 3.7 23:14:12 17° S 23:18:29 78° ESE 23:24:10 10° NNE
Cosmos 1606 Rocket 4.2 23:14:33 10° NNW 23:18:40 44° W 23:21:37 18° SSW
SeaSat 1 2.8 23:14:01 10° NNE 23:18:56 65° NW 23:23:48 10° SW
FALCON 9 DEB 3.9 23:20:07 21° SSW 23:21:37 31° SSE 23:24:43 10° E
SL-14 R/B 3.5 23:19:11 20° S 23:21:40 56° E 23:25:27 10° NNE
STARLINK-1224 3.7 23:19:00 10° W 23:23:02 52° SSW 23:27:04 10° ESE
Cosmos 1943 Rocket 3.9 23:19:20 10° W 23:24:20 32° NW 23:29:24 10° NNE
STARLINK-29 3.4 23:24:02 15° SW 23:26:20 39° SSE 23:29:21 10° E
ATLAS CENTAUR R/B 1.3 23:25:42 10° W 23:27:44 40° SSW 23:31:13 10° SE
SL-16 R/B 3.8 23:22:13 10° ESE 23:27:49 38° ENE 23:33:28 10° N
STARLINK-1225 3.8 23:23:59 10° W 23:28:00 50° SSW 23:32:02 10° ESE
Cosmos 2084 Rocket 4.5 23:26:53 10° NW 23:31:12 51° NNE 23:35:36 10° ESE
NOSS 3-4 (A) 3.6 23:25:52 10° SW 23:31:56 81° NW 23:38:35 10° NE
NOSS 3-4 (C) 3.6 23:25:57 10° SW 23:32:02 82° NW 23:38:42 10° NE
RESURS DK-1 2.3 23:29:48 18° SSW 23:32:49 73° ESE 23:36:58 10° NE
STARLINK-1230 3.8 23:28:57 10° W 23:32:58 49° SSW 23:36:58 10° ESE
Cosmos 1812 Rocket 4.2 23:30:32 10° N 23:34:57 54° ENE 23:38:55 12° SSE
Cosmos 2084 3.8 23:33:37 18° SSW 23:36:47 52° SE 23:41:09 10° ENE
Cosmos 1697 Rocket 4.4 23:32:54 10° SSE 23:36:56 20° E 23:40:59 10° NE
BREEZE-M R/B 4.3 23:31:59 10° SW 23:37:19 26° SSE 23:40:30 10° ESE
Cosmos 990 Rocket 4.2 23:32:24 10° NNW 23:37:42 76° ENE 23:42:57 10° SSE
Cosmos 2227 Rocket 2.2 23:32:07 10° NW 23:37:51 83° WSW 23:43:30 10° SSE
STARLINK-1243 3.8 23:33:57 10° W 23:37:56 47° SSW 23:41:55 10° SE
Cosmos 1626 2.1 23:36:00 21° S 23:38:27 87° ESE 23:42:12 10° NNE
CZ-4 R/B 4.0 23:35:33 10° NNE 23:40:20 64° ESE 23:43:50 18° S
ATLAS CENTAUR R/B 1.6 23:36:20 10° WSW 23:40:36 68° NW 23:44:35 10° NE
Cosmos 2369 Rocket 3.8 23:35:41 10° WSW 23:40:46 33° NW 23:45:52 10° NNE
Okean 1-7 Rocket 3.6 23:37:39 18° SSW 23:40:57 84° WNW 23:45:31 10° N
STARLINK-1236 3.9 23:38:54 10° W 23:42:53 45° SSW 23:46:51 10° SE
Landsat 4 4.0 23:44:36 10° N 23:48:18 60° WNW 23:51:00 17° SSW
Cosmos 1602 Rocket 4.2 23:47:23 16° SSE 23:50:38 47° E 23:54:48 10° NNE
Cosmos 2285 Rocket 4.4 23:45:04 10° NNW 23:51:27 67° ENE 23:57:46 10° SE
STARLINK-1269 4.0 23:48:53 10° W 23:52:48 42° SSW 23:56:43 10° SE
